Simultaneous Nadir Overpasses (SNOs) Predictions

Prediction of SNOs between METOP-A and NOAA-19 Satellite Orbit:

Table of predicted SNOs for the next 14.0 days since TLE Epoch: 6/16/2017
Index Date (METOP-A) Time (METOP-A) Lat,Lon (METOP-A) SZA (METOP-A ) Date (NOAA-19) Time (NOAA-19) Lat,Lon (NOAA-19) SZA (NOAA-19 ) Distance(km) Time Diff (sec)
1 06/19/2017 13:16:13 77.33, -14.42 53.87 06/19/2017 13:15:03 77.35, -14.48 53.89 2.88 70
2 06/19/2017 14:06:54 -77.33, 152.94 126.13 06/19/2017 14:06:03 -77.32, 152.89 126.14 1.62 51
3 06/19/2017 14:57:35 77.31, -39.84 53.85 06/19/2017 14:57:04 77.32, -39.87 53.86 2.03 31
4 06/19/2017 15:48:16 -77.31, 127.51 126.15 06/19/2017 15:48:04 -77.30, 127.50 126.17 1.65 12
5 06/19/2017 16:38:57 77.29, -65.27 53.83 06/19/2017 16:39:05 77.30, -65.26 53.84 1.41 8
6 06/19/2017 17:29:38 -77.29, 102.09 126.17 06/19/2017 17:30:05 -77.27, 102.11 126.19 2.10 27
7 06/19/2017 18:20:19 77.27, -90.69 53.80 06/19/2017 18:21:06 77.28, -90.65 53.82 1.35 47
8 06/19/2017 19:11:00 -77.27, 76.66 126.19 06/19/2017 19:12:06 -77.25, 76.71 126.21 2.76 66
9 06/30/2017 07:44:03 77.36, 68.75 54.18 06/30/2017 07:42:59 77.36, 68.76 54.17 0.28 64
10 06/30/2017 08:34:45 -77.34,-124.02 125.85 06/30/2017 08:33:57 -77.36,-123.97 125.83 2.76 48
11 06/30/2017 09:25:25 77.34, 43.33 54.16 06/30/2017 09:25:00 77.34, 43.37 54.16 1.17 25
12 06/30/2017 10:16:07 -77.32,-149.45 125.87 06/30/2017 10:15:58 -77.34,-149.36 125.85 2.94 9
13 06/30/2017 11:06:47 77.32, 17.90 54.14 06/30/2017 11:07:01 77.32, 17.98 54.14 2.09 14
14 06/30/2017 11:57:29 -77.30,-174.87 125.88 06/30/2017 11:57:59 -77.32,-174.76 125.86 3.32 30
15 06/30/2017 12:48:09 77.30, -7.53 54.13 06/30/2017 12:49:02 77.29, -7.41 54.12 3.01 53
16 06/30/2017 13:38:50 -77.32, 159.89 125.85 06/30/2017 13:40:00 -77.29, 159.85 125.88 3.56 70




NCC Satellite Simultaneous Nadir Overpasses (SNOs) Prediction Service
